Volver al catálogo

SZ-21 MODULE

ActivoCienciaVLEO
NORAD 66515·PAYLOAD·🇨🇳 China

Lanzado Oct 31, 2025 desde Jiuquan Satellite Launch Center

Loading…

Próximos Pases (próximas 24 horas)

TLE

ActualizadoSource: Space-Track

Época: Sep 13, 2026, 23:53 UTC

1 66515U 25246C   26256.99543840  .00069076  00000-0  28054-3 0  9995
2 66515  41.4690 110.8568 0012029 293.4243  66.5339 15.85143303 47791

Sigue SZ-21 MODULE en tiempo real con AllMySat

Download on the App Store